Weather History for KUAO - May, 2013

Change the Weather History Date:

Thursday, May 23, 2013

  Actual Average Record
Temperature  
Mean Temperature 50 °F -  
Max Temperature 56 °F - 90 °F (1999)
Min Temperature 45 °F - 39 °F (2002)
Degree Days  
Heating Degree Days 14    
Month to date heating degree days 156  
Since 1 July heating degree days 4205  
Cooling Degree Days 0    
Month to date cooling degree days 15  
Year to date cooling degree days 15  
Moisture  
Dew Point 46 °F    
Average Humidity 83    
Maximum Humidity 100    
Minimum Humidity 66    
Precipitation  
Precipitation 0.73 in - 0.75 in (2013)
Month to date precipitation 2.66  
Year to date precipitation 10.57  
Sea Level Pressure  
Sea Level Pressure 30.02 in    
Wind  
Wind Speed 10 mph (South)    
Max Wind Speed 21 mph    
Max Gust Speed 26 mph    
Visibility 9 miles    
Events Rain    
T = Trace of Precipitation, MM = Missing Value Source: NWS Daily Summary

Daily Weather History Graph

Daily Weather History Graph

Search for Another Location

Airport or City:

Trip Planner

Search our weather history database for the weather conditions in past years. The results will help you decide how hot, cold, wet, or windy it might be!

Date:

Astronomy

May. 23, 2013 Rise Set
Actual Time 5:32 AM PDT 8:43 PM PDT
Civil Twilight 4:57 AM PDT 9:19 PM PDT
Nautical Twilight 4:11 AM PDT 10:05 PM PDT
Astronomical Twilight 3:15 AM PDT 11:01 PM PDT
Moon 7:19 PM PDT (5/23) 4:26 AM PDT (5/23)
Length of Visible Light 16h 21m
Length of Day
15h 10m
Waxing Gibbous, 97% of the Moon is Illuminated
May 23
Waxing Gibbous
May 24
Full
May 31
Last Quarter
Jun 8
New
Jun 16
First Quarter

Hourly Weather History & Observations

Time (PDT) Temp. Windchill Dew Point Humidity Pressure Visibility Wind Dir Wind Speed Gust Speed Precip Events Conditions
12:53 AM 46.0 °F 39.6 °F 44.1 °F 93% 29.99 in 10.0 mi South 15.0 mph 20.7 mph 0.04 in Rain Light Rain
1:53 AM 46.0 °F 40.6 °F 44.1 °F 93% 30.00 in 8.0 mi SSW 11.5 mph - 0.04 in Rain Light Rain
2:53 AM 45.0 °F 39.7 °F 44.1 °F 97% 30.01 in 6.0 mi SSW 10.4 mph 19.6 mph 0.08 in Rain Rain
3:53 AM 45.0 °F 39.3 °F 44.1 °F 97% 30.00 in 6.0 mi South 11.5 mph 17.3 mph 0.13 in Rain Rain
4:53 AM 45.0 °F 40.1 °F 44.1 °F 97% 30.01 in 10.0 mi South 9.2 mph - 0.06 in Rain Light Rain
5:53 AM 45.0 °F 39.3 °F 43.0 °F 93% 30.01 in 8.0 mi South 11.5 mph 18.4 mph 0.06 in Rain Light Rain
6:53 AM 46.0 °F 40.2 °F 43.0 °F 89% 30.02 in 10.0 mi South 12.7 mph - 0.01 in Rain Light Rain
7:53 AM 46.0 °F 39.9 °F 43.0 °F 89% 30.03 in 10.0 mi South 13.8 mph 21.9 mph 0.01 in   Overcast
8:53 AM 46.9 °F - 44.1 °F 90% 30.04 in 10.0 mi South 15.0 mph 21.9 mph 0.01 in Rain Light Rain
9:53 AM 50.0 °F - 45.0 °F 83% 30.03 in 10.0 mi South 16.1 mph 21.9 mph 0.00 in   Overcast
10:53 AM 51.1 °F - 44.1 °F 77% 30.04 in 10.0 mi SSW 11.5 mph 19.6 mph N/A   Overcast
11:53 AM 51.1 °F - 43.0 °F 74% 30.04 in 10.0 mi South 13.8 mph 20.7 mph N/A   Overcast
12:53 PM 53.1 °F - 44.1 °F 71% 30.04 in 10.0 mi SSW 9.2 mph 18.4 mph N/A   Overcast
1:53 PM 55.0 °F - 44.1 °F 67% 30.03 in 10.0 mi South 17.3 mph 24.2 mph N/A   Mostly Cloudy
2:53 PM 55.9 °F - 44.1 °F 64% 30.03 in 10.0 mi South 10.4 mph 19.6 mph N/A   Overcast
3:53 PM 52.0 °F - 46.9 °F 83% 30.03 in 5.0 mi WSW 10.4 mph 16.1 mph 0.02 in Rain Light Rain
4:53 PM 52.0 °F - 48.0 °F 86% 30.03 in 10.0 mi SW 4.6 mph - 0.01 in   Overcast
5:53 PM 50.0 °F - 46.9 °F 89% 30.03 in 9.0 mi Variable 3.5 mph - 0.04 in Rain Light Rain
6:53 PM 50.0 °F - 48.0 °F 93% 30.02 in 7.0 mi SSW 3.5 mph - 0.06 in Rain Light Rain
7:03 PM 50.0 °F - 48.2 °F 94% 30.01 in 5.0 mi Calm Calm - 0.02 in Rain Rain
7:16 PM 48.2 °F - 48.2 °F 100% 30.01 in 5.0 mi SSE 3.5 mph - 0.03 in Rain Light Rain
7:30 PM 48.2 °F - 48.2 °F 100% 30.01 in 4.0 mi SSE 6.9 mph - 0.06 in Rain Rain
7:53 PM 48.9 °F - 48.0 °F 97% 30.02 in 8.0 mi South 8.1 mph - 0.09 in Rain Light Rain
8:53 PM 48.9 °F - 46.9 °F 93% 30.01 in 10.0 mi South 8.1 mph - 0.04 in Rain Light Rain
9:53 PM 48.9 °F - 46.9 °F 93% 30.01 in 10.0 mi South 9.2 mph - 0.03 in Rain Light Rain
10:31 PM 48.2 °F - 46.4 °F 93% 30.01 in 10.0 mi South 8.1 mph - 0.01 in Rain Light Rain
10:53 PM 48.9 °F - 46.9 °F 93% 30.01 in 10.0 mi South 9.2 mph - 0.01 in   Overcast
11:11 PM 48.2 °F - 46.4 °F 93% 30.01 in 10.0 mi South 10.4 mph - N/A   Overcast
11:19 PM 48.2 °F - 46.4 °F 93% 30.01 in 10.0 mi South 10.4 mph - N/A   Overcast
11:53 PM 48.9 °F - 46.9 °F 93% 30.01 in 10.0 mi South 11.5 mph - 0.01 in Rain Light Rain